Temp
-6 -6 -6 -6 -6 -6 -6 -6 -6 -6 -6 -5 -5 -6 -7 -6 -6 -7 -7 -8 -9 -9 -9 -9 -9 -9 -9 -9 -9 -9 -9 -10 -10 -10 -9 -10 -10 -10 -10 -10 -10 -10 -10
-6 -6 -6 -6 -6 -6 -6 -6 -6 -6 -6 -6 -6 -7 -6 -6 -6 -7 -7 -8 -9 -9 -9 -9 -9 -9 -9 -9 -9 -10 -9 -9 -9 -9 -9 -9 -9 -9 -10 -10 -10 -10 -10
-6 -6 -6 -6 -6 -6 -7 -7 -6 -6 -6 -6 -6 -6 -5 -5 -6 -7 -7 -7 -8 -8 -8 -8 -9 -9 -9 -9 -9 -9 -9 -9 -9 -9 -8 -9 -9 -9 -9 -9 -9 -10 -10
-6 -6 -6 -6 -6 -6 -6 -7 -6 -6 -6 -6 -6 -6 -5 -6 -6 -7 -7 -7 -7 -7 -8 -9 -9 -9 -9 -9 -9 -9 -9 -9 -9 -8 -8 -7 -9 -10 -9 -9 -10 -10 -10
-6 -6 -6 -6 -6 -6 -7 -6 -6 -6 -6 -6 -6 -5 -5 -6 -7 -7 -7 -7 -7 -7 -8 -8 -8 -9 -9 -9 -10 -10 -9 -9 -8 -8 -9 -9 -8 -10 -9 -9 -9 -10 -10
-6 -6 -6 -6 -6 -6 -6 -6 -6 -6 -6 -6 -5 -5 -6 -7 -7 -7 -7 -7 -7 -7 -7 -8 -8 -9 -9 -9 -9 -9 -9 -9 -9 -9 -9 -9 -9 -9 -9 -9 -9 -9 -10
-6 -6 -6 -6 -6 -6 -6 -6 -6 -6 -6 -5 -6 -5 -6 -7 -7 -7 -7 -7 -7 -7 -8 -8 -8 -9 -9 -9 -9 -9 -9 -9 -9 -8 -9 -9 -9 -9 -9 -9 -10 -10 -10
-6 -6 -6 -6 -7 -8 -6 -6 -6 -7 -6 -5 -5 -5 -6 -7 -7 -7 -7 -7 -7 -7 -8 -8 -8 -8 -8 -9 -9 -9 -9 -9 -9 -9 -9 -8 -8 -8 -8 -9 -9 -10 -10
-6 -7 -6 -6 -7 -7 -6 -7 -6 -6 -6 -6 -5 -5 -6 -6 -7 -7 -7 -7 -7 -7 -7 -7 -7 -8 -8 -8 -8 -9 -9 -9 -8 -9 -8 -8 -8 -8 -8 -9 -9 -9 -10
-6 -6 -7 -6 -6 -7 -6 -7 -6 -6 -6 -6 -6 -6 -6 -6 -7 -7 -7 -7 -7 -7 -7 -7 -8 -8 -8 -8 -8 -8 -8 -8 -8 -8 -8 -9 -8 -8 -8 -9 -9 -9 -9
-7 -6 -7 -7 -7 -7 -7 -7 -6 -6 -6 -6 -6 -6 -6 -6 -7 -7 -7 -7 -7 -7 -7 -7 -7 -7 -8 -8 -8 -8 -8 -8 -8 -8 -8 -8 -8 -8 -8 -8 -8 -8 -8
-7 -7 -7 -7 -7 -7 -7 -6 -6 -6 -6 -6 -6 -6 -6 -6 -6 -7 -6 -6 -7 -7 -7 -7 -7 -7 -7 -7 -7 -8 -8 -8 -8 -7 -7 -7 -8 -8 -8 -8 -8 -8 -8
-6 -7 -7 -7 -7 -7 -7 -6 -6 -6 -6 -6 -6 -6 -6 -6 -6 -7 -6 -6 -6 -6 -7 -7 -7 -7 -7 -7 -7 -7 -8 -7 -7 -7 -7 -7 -7 -7 -8 -8 -8 -8 -8
-7 -7 -7 -7 -6 -6 -7 -6 -6 -6 -6 -6 -6 -6 -6 -6 -6 -6 -6 -6 -6 -6 -6 -6 -7 -7 -7 -7 -7 -7 -7 -7 -8 -8 -8 -8 -8 -7 -7 -7 -7 -7 -8
-7 -7 -7 -7 -7 -6 -6 -6 -6 -6 -6 -6 -6 -6 -6 -6 -6 -5 -6 -6 -7 -6 -6 -6 -7 -7 -7 -7 -7 -7 -7 -7 -7 -7 -7 -8 -8 -8 -8 -7 -7 -7 -7
-7 -7 -7 -7 -6 -6 -6 -6 -6 -6 -5 -5 -6 -6 -6 -6 -6 -5 -6 -6 -6 -6 -6 -6 -6 -6 -7 -7 -7 -7 -7 -7 -7 -7 -7 -8 -8 -8 -8 -8 -7 -7 -7
-6 -7 -7 -7 -6 -6 -6 -6 -6 -6 -6 -6 -6 -6 -6 -6 -6 -5 -5 -6 -6 -6 -6 -6 -6 -6 -6 -6 -6 -7 -7 -7 -7 -7 -7 -7 -7 -8 -8 -7 -7 -7 -7
-6 -6 -7 -6 -6 -7 -7 -6 -6 -6 -6 -6 -5 -6 -6 -6 -6 -5 -5 -5 -6 -6 -6 -6 -6 -6 -6 -6 -6 -6 -6 -6 -7 -7 -7 -7 -7 -7 -7 -7 -7 -7 -7
-6 -6 -6 -6 -6 -6 -6 -6 -6 -6 -6 -6 -6 -5 -6 -6 -6 -5 -5 -5 -5 -5 -5 -6 -6 -6 -6 -5 -6 -6 -6 -6 -7 -7 -7 -7 -7 -7 -7 -7 -7 -7 -7
-6 -6 -6 -6 -6 -6 -6 -6 -6 -6 -6 -5 -6 -6 -6 -6 -6 -5 -5 -5 -5 -5 -5 -5 -5 -5 -5 -6 -6 -6 -6 -6 -6 -6 -7 -5 -7 -6 -6 -7 -7 -7 -7
-6 -6 -6 -6 -6 -6 -6 -7 -6 -6 -6 -6 -6 -6 -6 -6 -6 -5 -5 -5 -5 -5 -5 -5 -5 -5 -5 -5 -6 -6 -6 -6 -6 -6 -6 -6 -6 -6 -6 -7 -6 -6 -6
-6 -6 -6 -6 -6 -6 -6 -6 -6 -6 -6 -6 -6 -6 -6 -6 -6 -5 -5 -5 -5 -5 -6 -5 -5 -5 -5 -5 -5 -6 -7 -6 -7 -6 -6 -6 -6 -6 -6 -6 -6 -6 -6
-6 -6 -6 -6 -6 -5 -6 -6 -6 -6 -6 -6 -6 -6 -6 -6 -6 -5 -5 -5 -5 -5 -5 -5 -5 -5 -5 -5 -5 -5 -6 -6 -6 -6 -6 -6 -6 -6 -6 -6 -6 -6 -6
-5 -6 -6 -6 -6 -5 -6 -6 -7 -6 -6 -6 -6 -6 -6 -6 -6 -6 -5 -5 -5 -5 -5 -5 -5 -5 -5 -5 -5 -5 -5 -6 -5 -5 -6 -6 -6 -7 -6 -6 -6 -6 -6
-5 -5 -6 -6 -6 -6 -6 -6 -7 -6 -6 -6 -6 -6 -6 -6 -6 -6 -6 -5 -5 -5 -5 -5 -5 -5 -5 -5 -5 -5 -5 -6 -6 -6 -6 -6 -7 -6 -6 -7 -6 -6 -6
-5 -5 -5 -6 -6 -5 -6 -6 -6 -6 -6 -6 -6 -6 -6 -6 -6 -5 -5 -6 -5 -5 -5 -5 -5 -5 -5 -5 -6 -6 -6 -6 -6 -6 -6 -6 -6 -6 -6 -6 -6 -6 -6
Height
5905 5904 5905 5906 5906 5907 5907 5906 5906 5906 5905 5904 5903 5903 5902 5901 5900 5899 5899 5898 5898 5897 5898 5898 5898 5897 5897 5897 5897 5897 5897 5898 5898 5897 5898 5898 5899 5900 5900 5900 5902 5903 5904
5905 5905 5905 5906 5906 5906 5907 5908 5908 5908 5907 5906 5905 5904 5903 5903 5903 5902 5902 5901 5900 5899 5899 5899 5899 5898 5898 5898 5896 5896 5897 5898 5898 5897 5897 5897 5898 5899 5900 5901 5901 5904 5905
5904 5904 5904 5905 5906 5906 5908 5909 5910 5909 5909 5908 5907 5906 5906 5907 5906 5905 5904 5903 5902 5902 5902 5901 5900 5899 5899 5898 5897 5896 5897 5898 5897 5896 5896 5899 5899 5902 5902 5902 5902 5903 5906
5903 5903 5904 5905 5906 5906 5907 5910 5911 5911 5910 5910 5908 5908 5909 5910 5908 5907 5907 5906 5905 5905 5903 5902 5901 5900 5900 5897 5897 5898 5897 5897 5897 5896 5896 5871 5898 5901 5904 5903 5902 5903 5905
5903 5903 5902 5903 5905 5905 5907 5911 5912 5912 5911 5911 5910 5911 5912 5912 5911 5911 5910 5909 5909 5908 5906 5904 5903 5902 5901 5899 5898 5899 5898 5898 5898 5898 5898 5903 5871 5898 5904 5904 5904 5903 5905
5903 5902 5901 5901 5902 5903 5905 5910 5912 5912 5912 5912 5912 5913 5914 5914 5914 5914 5914 5912 5911 5911 5909 5907 5905 5904 5903 5902 5901 5901 5901 5900 5900 5900 5899 5899 5897 5903 5902 5905 5905 5904 5906
5903 5902 5900 5898 5898 5903 5907 5911 5911 5913 5914 5915 5914 5915 5916 5916 5916 5916 5916 5915 5913 5913 5912 5910 5908 5907 5905 5904 5902 5902 5902 5902 5902 5902 5903 5899 5899 5901 5906 5906 5905 5905 5906
5903 5903 5900 5900 5901 5905 5910 5909 5913 5914 5915 5916 5917 5917 5918 5919 5919 5918 5918 5918 5917 5916 5916 5914 5912 5911 5909 5906 5905 5905 5904 5904 5904 5903 5903 5905 5905 5906 5905 5905 5904 5905 5906
5904 5903 5904 5905 5906 5908 5911 5912 5915 5916 5917 5918 5918 5919 5920 5921 5921 5920 5920 5920 5920 5920 5918 5918 5917 5915 5913 5911 5908 5907 5907 5907 5906 5906 5905 5905 5905 5906 5906 5906 5906 5906 5906
5904 5905 5904 5907 5909 5910 5913 5915 5916 5918 5919 5920 5920 5921 5922 5922 5922 5922 5922 5922 5923 5923 5921 5921 5920 5918 5916 5913 5911 5910 5909 5909 5908 5908 5908 5907 5907 5907 5907 5907 5906 5906 5908
5905 5906 5906 5909 5910 5912 5914 5917 5918 5919 5920 5922 5923 5924 5923 5924 5924 5924 5925 5925 5925 5924 5924 5923 5922 5921 5919 5917 5915 5914 5914 5912 5911 5912 5911 5910 5909 5909 5909 5909 5908 5907 5908
5905 5907 5909 5911 5912 5914 5916 5918 5919 5921 5922 5923 5925 5925 5925 5926 5927 5926 5927 5928 5928 5927 5926 5925 5925 5924 5923 5921 5919 5918 5917 5917 5916 5915 5915 5914 5913 5912 5912 5911 5911 5910 5908
5905 5908 5910 5912 5913 5915 5917 5919 5919 5921 5923 5924 5926 5926 5927 5927 5928 5929 5929 5930 5929 5929 5929 5927 5927 5927 5927 5923 5923 5922 5921 5921 5920 5920 5919 5917 5917 5916 5915 5914 5913 5913 5912
5906 5908 5910 5912 5914 5916 5918 5919 5920 5922 5924 5924 5927 5928 5929 5929 5929 5931 5931 5931 5931 5930 5929 5929 5929 5929 5928 5927 5926 5926 5925 5925 5929 5923 5923 5921 5920 5919 5918 5917 5916 5916 5915
5905 5907 5909 5911 5913 5916 5917 5920 5921 5922 5924 5925 5927 5929 5930 5930 5931 5932 5933 5932 5932 5931 5931 5931 5931 5931 5930 5930 5929 5929 5929 5928 5927 5926 5924 5924 5923 5922 5921 5920 5919 5919 5919
5905 5906 5909 5911 5913 5916 5917 5919 5921 5922 5924 5926 5927 5929 5930 5931 5931 5933 5934 5934 5933 5933 5932 5933 5934 5934 5936 5935 5934 5932 5932 5930 5930 5929 5928 5926 5925 5925 5923 5923 5922 5922 5922
5904 5905 5907 5910 5913 5916 5918 5919 5920 5922 5924 5926 5927 5929 5930 5931 5932 5933 5935 5935 5935 5935 5934 5935 5935 5936 5938 5937 5940 5937 5936 5934 5933 5933 5931 5930 5929 5928 5926 5925 5925 5925 5924
5903 5905 5906 5908 5912 5914 5917 5919 5920 5921 5923 5925 5926 5928 5930 5931 5932 5933 5934 5935 5936 5936 5936 5937 5938 5937 5937 5938 5934 5939 5938 5936 5936 5935 5935 5933 5932 5931 5930 5928 5928 5927 5926
5904 5905 5907 5909 5912 5914 5915 5917 5919 5920 5922 5924 5926 5927 5929 5930 5931 5933 5933 5934 5936 5937 5938 5938 5941 5938 5938 5938 5929 5940 5940 5939 5938 5937 5936 5935 5935 5934 5933 5932 5932 5931 5929
5904 5905 5907 5909 5910 5912 5914 5916 5917 5919 5921 5923 5925 5927 5928 5929 5930 5931 5933 5934 5935 5936 5937 5939 5939 5940 5939 5940 5940 5941 5942 5941 5940 5939 5939 5943 5937 5935 5935 5935 5934 5933 5932
5904 5905 5906 5908 5909 5911 5913 5915 5917 5919 5920 5922 5924 5926 5927 5928 5930 5931 5932 5933 5935 5936 5937 5938 5939 5940 5940 5940 5941 5941 5938 5938 5938 5941 5941 5940 5938 5937 5937 5936 5935 5935 5934
5904 5905 5906 5907 5908 5910 5911 5914 5916 5917 5919 5920 5922 5924 5926 5926 5928 5930 5931 5933 5935 5936 5937 5938 5939 5940 5941 5942 5942 5941 5945 5931 5941 5944 5942 5941 5940 5939 5938 5937 5935 5935 5935
5903 5905 5906 5907 5907 5908 5909 5911 5914 5916 5918 5919 5921 5922 5923 5924 5926 5927 5929 5931 5934 5935 5936 5938 5939 5940 5940 5942 5942 5942 5938 5937 5938 5941 5942 5941 5941 5940 5939 5938 5937 5936 5935
5903 5903 5905 5905 5906 5907 5908 5909 5911 5914 5916 5917 5919 5920 5921 5922 5924 5925 5927 5929 5931 5934 5936 5938 5938 5939 5940 5940 5941 5942 5942 5941 5942 5942 5942 5941 5941 5940 5939 5939 5938 5937 5937
5903 5902 5903 5904 5904 5905 5906 5907 5910 5912 5913 5915 5916 5917 5918 5919 5920 5923 5925 5927 5929 5932 5935 5936 5937 5938 5939 5939 5939 5939 5940 5940 5940 5941 5941 5941 5940 5939 5939 5938 5938 5937 5937
5902 5902 5902 5902 5903 5904 5905 5906 5907 5909 5911 5912 5913 5914 5913 5914 5916 5920 5923 5925 5927 5931 5933 5934 5936 5937 5937 5937 5937 5937 5937 5938 5938 5938 5938 5938 5938 5938 5938 5937 5936 5935 5935
Wind_Speed
2 2 4 4 6 6 5 6 7 10 13 16 16 16 15 15 12 12 12 10 9 8 8 8 5 3 3 2 2 3 5 5 5 5 4 4 5 6 8 9 9 8 9
5 4 5 6 6 6 5 4 6 11 14 16 15 15 15 15 12 14 15 14 12 10 8 6 5 4 4 6 5 4 2 5 4 4 4 4 4 6 7 9 9 9 9
7 6 5 6 8 7 9 6 8 12 15 16 15 15 16 17 15 17 18 19 18 14 14 12 11 11 10 12 11 7 3 4 3 4 5 2 6 4 4 7 8 9 7
7 8 5 5 5 6 10 8 11 13 14 15 15 14 16 19 17 17 16 20 21 19 16 16 17 15 13 9 10 8 9 6 4 4 3 8 6 2 2 4 7 9 9
4 7 6 8 7 8 17 15 14 14 15 16 14 13 16 18 19 19 16 15 20 19 17 17 17 18 14 10 8 7 8 8 7 6 6 6 14 7 4 2 3 4 6
4 5 7 9 10 5 19 20 17 15 16 15 14 14 16 17 15 18 20 17 15 17 16 17 19 18 16 14 9 7 7 6 5 5 5 3 6 3 3 2 3 4 6
3 3 6 10 11 19 24 21 19 17 17 15 14 16 16 15 15 16 15 18 17 15 16 17 20 20 17 15 14 8 8 7 5 4 6 4 2 3 5 5 4 4 5
1 2 1 19 22 28 19 21 18 18 17 15 15 15 14 13 14 17 14 13 16 14 13 13 17 20 21 19 18 12 8 6 4 5 4 6 5 5 4 3 3 4 5
3 5 12 22 20 20 17 19 17 18 18 15 16 16 14 15 13 16 21 17 14 14 18 17 16 16 19 22 19 16 12 7 5 3 2 3 3 2 1 2 2 2 5
5 12 20 23 20 19 16 17 17 17 17 16 15 16 14 14 12 13 15 17 16 14 16 16 16 19 16 16 20 17 15 13 11 11 7 3 4 3 1 2 4 4 2
10 13 20 18 16 14 18 16 15 16 17 15 14 15 14 13 12 11 12 15 16 15 14 16 16 15 19 20 18 18 16 14 14 14 13 13 11 8 10 7 8 7 2
15 14 10 15 16 13 16 16 14 14 16 16 15 14 14 13 10 10 11 13 15 14 15 15 13 16 17 17 20 21 20 19 17 15 13 12 9 6 6 6 6 8 7
13 12 10 8 10 14 13 14 14 15 15 15 15 15 15 12 10 8 10 11 12 12 12 15 16 19 18 15 18 17 20 19 17 16 14 14 13 11 10 9 8 8 9
11 13 10 12 13 14 12 12 17 16 16 16 14 14 13 12 9 7 8 8 10 11 15 13 14 14 13 15 11 16 17 20 14 18 16 14 14 13 13 12 11 10 8
12 12 13 15 15 14 12 15 16 15 15 16 15 13 12 10 8 7 8 9 11 10 11 15 15 14 15 13 16 13 13 15 16 16 15 14 14 14 14 13 13 12 10
9 11 13 14 15 14 12 16 14 14 13 15 16 16 12 10 8 7 7 8 8 9 10 11 13 16 17 15 14 11 15 13 12 13 15 17 17 16 15 14 13 12 11
8 3 8 15 17 12 13 14 16 15 15 15 15 17 15 11 9 7 6 5 8 8 9 9 11 13 12 17 8 14 11 12 13 12 12 14 15 15 16 16 16 15 13
4 7 2 17 15 13 12 11 17 18 17 14 17 18 17 15 11 9 8 4 6 6 7 9 10 10 11 14 10 10 9 8 10 9 10 12 12 12 14 14 14 15 16
4 5 6 8 13 14 13 12 13 18 18 18 17 20 19 18 15 12 10 7 5 5 6 9 2 7 8 6 14 6 6 9 9 9 9 9 9 10 10 11 12 11 12
4 7 7 7 9 12 13 14 13 14 16 16 18 19 19 19 18 15 13 10 7 4 3 4 3 5 7 7 6 6 7 7 10 9 8 13 8 6 6 8 8 9 10
3 4 8 8 7 7 11 13 14 14 14 12 18 18 19 20 20 20 16 13 10 8 5 4 3 2 4 5 4 6 1 6 10 9 5 10 9 9 7 7 1 5 7
5 4 5 6 8 10 11 11 12 12 14 13 14 15 18 23 23 21 18 15 12 10 9 6 3 1 0 1 5 4 0 4 7 5 7 9 10 10 9 10 7 6 5
5 6 7 6 7 8 10 12 15 15 14 15 14 13 13 24 27 23 21 18 15 13 10 8 6 4 4 2 0 2 8 7 9 3 6 6 8 8 8 8 8 7 5
6 6 6 8 8 9 8 11 14 13 12 13 14 15 14 18 24 23 23 20 18 15 12 10 8 7 7 7 5 5 5 6 6 8 6 6 5 6 8 7 7 7 7
6 6 5 5 8 9 9 9 8 12 13 12 14 16 21 23 26 27 24 21 20 17 14 13 13 12 11 12 10 10 8 9 9 9 9 7 7 8 8 8 8 7 8
5 5 5 5 5 8 11 10 11 11 13 11 11 12 19 22 23 29 26 21 20 18 16 14 14 13 13 13 12 11 12 12 13 13 11 11 10 10 10 10 10 10 10
Wind_Direction
229 181 181 154 111 91 115 99 98 108 113 107 104 100 94 81 71 69 59 48 46 61 68 80 104 116 105 86 79 155 169 174 160 144 158 156 154 143 139 137 137 140 148
232 234 203 203 196 162 151 119 113 120 118 114 109 100 90 84 74 66 53 50 48 49 67 66 52 36 49 71 53 64 181 191 178 153 163 187 192 176 160 152 145 147 152
245 227 219 219 211 192 170 141 139 126 124 118 113 102 94 83 73 68 65 62 57 58 62 62 62 60 62 61 45 65 88 161 159 186 180 221 206 351 160 159 151 144 146
261 224 246 238 201 226 186 164 148 132 126 120 113 105 98 89 78 73 70 67 61 62 64 64 61 60 62 38 57 78 79 105 145 154 153 198 227 293 50 198 165 152 154
242 229 239 226 227 275 240 165 150 138 130 122 116 107 101 99 78 74 74 79 69 63 66 64 59 51 62 62 68 74 89 102 111 136 180 190 191 91 82 176 144 198 158
260 240 258 257 235 223 164 155 145 141 131 128 119 108 97 108 81 80 80 77 80 64 64 58 60 54 59 64 71 73 86 105 123 122 136 124 32 142 96 155 181 151 186
281 269 273 262 212 165 143 147 144 142 134 133 117 107 106 104 84 87 90 80 82 70 61 59 56 50 48 57 55 66 68 70 86 110 127 118 116 126 185 183 177 187 183
249 174 51 120 125 125 142 139 142 138 139 135 119 114 114 105 88 90 81 100 79 78 66 50 54 52 53 56 56 62 71 72 80 114 145 148 163 187 184 165 177 193 190
193 169 143 133 129 133 141 140 141 138 143 137 128 122 119 105 97 87 85 92 102 94 73 65 65 57 59 61 62 65 65 67 80 104 148 155 174 157 152 181 221 224 191
171 175 143 141 135 139 143 145 144 141 147 143 136 131 126 108 105 89 83 87 101 97 82 71 65 59 60 57 58 63 69 73 76 72 74 78 101 103 152 165 187 167 143
166 159 132 136 137 137 149 144 150 148 153 149 138 131 130 118 113 97 93 89 95 89 92 77 67 67 59 59 64 64 65 68 74 69 79 89 97 86 84 80 49 49 73
166 186 166 147 141 142 146 157 156 156 160 156 140 135 133 132 120 102 102 99 95 84 89 78 71 65 59 67 68 64 65 63 67 67 67 76 88 75 41 61 53 62 89
180 181 176 165 164 158 153 170 168 164 163 164 150 144 142 144 132 109 107 104 97 86 86 87 74 69 62 68 71 68 69 65 65 67 69 69 67 66 65 62 55 58 74
184 195 198 187 191 177 180 183 179 170 170 170 160 150 150 158 148 123 100 95 98 89 85 81 72 62 66 71 80 74 72 69 65 66 68 66 67 67 63 62 59 59 60
191 189 195 198 196 184 185 180 173 177 173 173 167 163 157 161 156 131 107 96 91 110 82 74 71 74 81 79 76 71 62 67 54 69 74 67 72 70 68 62 60 58 56
177 207 206 201 207 190 176 185 177 184 184 179 180 172 168 167 167 150 120 106 107 106 88 87 76 72 69 72 60 71 75 66 71 72 72 72 74 73 73 69 65 64 65
192 173 216 202 202 196 189 194 191 188 187 190 191 179 179 176 175 171 152 121 116 114 105 84 72 76 124 92 59 49 68 77 75 75 74 72 75 73 75 75 72 65 62
195 204 209 199 205 201 199 190 202 204 196 191 198 192 186 185 190 180 172 153 133 125 100 94 81 75 85 92 94 52 42 75 66 61 64 67 60 62 64 67 67 66 65
184 192 195 191 204 208 219 211 209 216 214 205 203 202 194 192 196 195 193 182 173 140 126 103 215 95 86 74 25 58 53 57 42 42 41 34 53 51 54 57 60 60 66
203 191 193 198 207 207 219 219 214 212 218 214 207 208 205 196 201 204 204 199 196 189 153 138 143 101 89 96 78 62 42 42 37 47 34 13 22 19 53 49 53 60 61
184 214 205 206 212 202 209 215 219 216 215 219 218 221 213 209 207 210 212 210 205 205 211 186 164 101 73 82 88 60 101 72 53 37 29 22 28 32 38 27 34 63 59
193 189 198 197 217 232 238 227 215 217 214 208 217 221 220 218 213 215 219 222 218 215 222 223 220 224 211 23 54 18 47 157 65 281 3 1 14 17 16 21 36 32 25
241 222 222 214 209 219 231 224 213 215 218 220 225 231 238 218 215 217 215 225 227 231 233 241 241 257 272 264 287 326 334 348 18 3 345 349 358 356 348 5 13 14 20
264 244 226 234 224 225 220 217 212 219 227 228 229 237 243 222 223 227 220 226 235 236 243 249 254 251 256 269 281 302 293 316 313 301 324 333 326 313 315 325 334 343 344
277 265 253 231 236 227 232 215 225 223 222 234 241 249 242 238 232 232 226 228 238 241 245 247 254 261 261 276 287 296 287 288 288 303 307 302 301 296 289 289 299 309 315
284 271 251 247 228 232 230 227 221 219 219 238 231 274 246 234 235 226 226 228 236 244 245 251 254 257 264 269 275 279 288 286 290 299 299 295 294 294 296 290 286 292 296